Weather History for Atwater, CA

Change the Weather History Date:

Thursday, October 3, 2013

  Actual Average (KMCE) Record (KMCE)
Temperature  
Mean Temperature 63 °F 68 °F  
Max Temperature 75 °F 84 °F 99 °F (2012)
Min Temperature 48 °F 52 °F 43 °F (1973)
Degree Days  
Heating Degree Days 2    
Month to date heating degree days  
Since 1 July heating degree days  
Cooling Degree Days 0    
Month to date cooling degree days  
Year to date cooling degree days  
Growing Degree Days 13 (Base 50)    
Moisture  
Dew Point 37 °F    
Average Humidity 45    
Maximum Humidity 77    
Minimum Humidity 19    
Precipitation  
Precipitation 0.00 in 0.01 in 0.05 in (2010)
Month to date precipitation 0.02  
Year to date precipitation 9.01  
Since 1 July precipitation 0.33  
Snow  
Snow 0.00 in - - ()
Month to date snowfall  
Since 1 July snowfall  
Since 1 September snowfall  
Snow Depth -    
Sea Level Pressure  
Sea Level Pressure 29.95 in    
Wind  
Wind Speed 11 mph (North)    
Max Wind Speed 28 mph    
Max Gust Speed 38 mph    
Visibility 9 miles    
Events      
T = Trace of Precipitation, MM = Missing Value Source: NWS Daily Summary

Daily Weather History Graph

Daily Weather History Graph

Search for Another Location

Airport:

Trip Planner

Search our weather history database for the weather conditions in past years. The results will help you decide how hot, cold, wet, or windy it might be!

Date:

Astronomy

Oct. 03, 2013 Rise Set
Actual Time 6:59 AM PDT 6:41 PM PDT
Civil Twilight 6:33 AM PDT 7:07 PM PDT
Nautical Twilight 6:03 AM PDT 7:38 PM PDT
Astronomical Twilight 5:33 AM PDT 8:08 PM PDT
Moon 5:39 AM PDT (10/3) 5:52 PM PDT (10/3)
Length of Visible Light 12h 34m
Length of Day
11h 42m
Waning Crescent, 2% of the Moon is Illuminated
Oct 3
Waning Crescent
Oct 4
New
Oct 11
First Quarter
Oct 18
Full
Oct 26
Last Quarter

Hourly Weather History & Observations

Time (PDT) Temp. Dew Point Humidity Pressure Visibility Wind Dir Wind Speed Gust Speed Precip Events Conditions
12:15 AM 53.6 °F 44.6 °F 72% 29.95 in 10.0 mi NNE 5.8 mph - N/A   Clear
12:35 AM 55.4 °F 42.8 °F 63% 29.94 in 10.0 mi NNE 5.8 mph - N/A   Clear
12:55 AM 55.4 °F 42.8 °F 63% 29.95 in 10.0 mi NNE 4.6 mph - N/A   Clear
1:15 AM 57.2 °F 41.0 °F 55% 29.95 in 10.0 mi NNE 6.9 mph - N/A   Clear
1:35 AM 57.2 °F 41.0 °F 55% 29.95 in 10.0 mi North 9.2 mph - N/A   Clear
1:55 AM 57.2 °F 41.0 °F 55% 29.96 in 10.0 mi NNE 6.9 mph - N/A   Clear
2:15 AM 57.2 °F 41.0 °F 55% 29.96 in 10.0 mi NNE 6.9 mph - N/A   Clear
2:35 AM 57.2 °F 41.0 °F 55% 29.97 in 10.0 mi North 6.9 mph - N/A   Clear
2:55 AM 55.4 °F 41.0 °F 58% 29.96 in 10.0 mi North 8.1 mph - N/A   Clear
3:15 AM 55.4 °F 41.0 °F 58% 29.95 in 10.0 mi North 10.4 mph - N/A   Clear
3:35 AM 55.4 °F 41.0 °F 58% 29.96 in 10.0 mi North 13.8 mph - N/A   Clear
3:55 AM 55.4 °F 39.2 °F 54% 29.96 in 10.0 mi North 12.7 mph - N/A   Clear
4:15 AM 55.4 °F 39.2 °F 54% 29.96 in 10.0 mi North - - N/A   Clear
4:35 AM 55.4 °F 37.4 °F 51% 29.96 in 10.0 mi North 15.0 mph 19.6 mph N/A   Clear
4:55 AM 55.4 °F 37.4 °F 51% 29.97 in 10.0 mi North 12.7 mph - N/A   Clear
5:15 AM 55.4 °F 37.4 °F 51% 29.96 in 10.0 mi North 13.8 mph - N/A   Clear
5:35 AM 55.4 °F 37.4 °F 51% 29.96 in 10.0 mi North 16.1 mph 20.7 mph N/A   Clear
5:55 AM 55.4 °F 35.6 °F 47% 29.97 in 10.0 mi North 17.3 mph - N/A   Clear
6:15 AM 55.4 °F 35.6 °F 47% 29.97 in 10.0 mi North 16.1 mph - N/A   Clear
6:35 AM 55.4 °F 35.6 °F 47% 29.97 in 10.0 mi North 15.0 mph - N/A   Clear
6:45 AM 55.4 °F 35.6 °F 47% 29.97 in 10.0 mi NNW 17.3 mph 27.6 mph N/A   Clear
6:55 AM 55.4 °F 35.6 °F 47% 29.97 in 10.0 mi North 17.3 mph 24.2 mph N/A   Clear
7:45 AM 55.4 °F 35.6 °F 47% 29.99 in 10.0 mi NNW 18.4 mph 28.8 mph N/A   Clear
8:45 AM 60.8 °F 35.6 °F 39% 30.00 in 10.0 mi NNW 23.0 mph 34.5 mph N/A   Clear
9:45 AM 62.6 °F 55.4 °F 77% 30.01 in 6.0 mi NNW 27.6 mph 38.0 mph N/A   Widespread Dust
10:45 AM 66.2 °F 32.0 °F 28% 30.01 in 6.0 mi NNW 23.0 mph 33.4 mph N/A   Widespread Dust
11:45 AM 69.8 °F 32.0 °F 25% 29.99 in 6.0 mi NNW 23.0 mph 31.1 mph N/A   Widespread Dust
12:55 PM 73.4 °F 32.0 °F 22% 29.97 in 6.0 mi NNW 27.6 mph 34.5 mph N/A   Widespread Dust
1:45 PM 73.4 °F 32.0 °F 22% 29.95 in 6.0 mi NNW 25.3 mph 34.5 mph N/A   Widespread Dust
2:45 PM 75.2 °F 32.0 °F 21% 29.93 in 6.0 mi NNW 25.3 mph 34.5 mph N/A   Widespread Dust
3:45 PM 75.2 °F 30.2 °F 19% 29.92 in 6.0 mi NNW 23.0 mph 33.4 mph N/A   Widespread Dust
4:45 PM 75.2 °F 30.2 °F 19% 29.91 in 6.0 mi NNW 19.6 mph 28.8 mph N/A   Widespread Dust
5:45 PM 73.4 °F 30.2 °F 20% 29.90 in 6.0 mi NNW 20.7 mph 27.6 mph N/A   Clear
6:45 PM 68.0 °F 32.0 °F 26% 29.90 in 8.0 mi NW 11.5 mph - N/A   Clear
7:45 PM 64.4 °F 32.0 °F 30% 29.90 in 10.0 mi West 11.5 mph - N/A   Clear
9:35 PM 60.8 °F 32.0 °F 34% 29.90 in 10.0 mi NW 6.9 mph - N/A   Overcast
9:55 PM 60.8 °F 32.0 °F 34% 29.90 in 10.0 mi NW 8.1 mph - N/A   Scattered Clouds
10:15 PM 60.8 °F 32.0 °F 34% 29.91 in 10.0 mi NNW 6.9 mph - N/A   Mostly Cloudy
10:35 PM 60.8 °F 32.0 °F 34% 29.91 in 10.0 mi NNW 6.9 mph - N/A   Overcast
10:55 PM 57.2 °F 32.0 °F 38% 29.91 in 10.0 mi Calm Calm - N/A   Overcast
11:15 PM 51.8 °F 35.6 °F 54% 29.92 in 10.0 mi SSE 3.5 mph - N/A   Overcast
11:35 PM 51.8 °F 35.6 °F 54% 29.92 in 10.0 mi SE 3.5 mph - N/A   Overcast
11:55 PM 48.2 °F 35.6 °F 62% 29.92 in 10.0 mi Calm Calm - N/A   Overcast